Weather History for Savannah, GA

Change the Weather History Date:

Sunday, November 3, 2013

  Actual Average Record
Temperature  
Mean Temperature 58 °F 63 °F  
Max Temperature 70 °F 74 °F 85 °F (1961)
Min Temperature 46 °F 51 °F 24 °F (1954)
Degree Days  
Heating Degree Days 7 4  
Month to date heating degree days 7 12  
Since 1 July heating degree days 41 69  
Cooling Degree Days 0 2  
Month to date cooling degree days 12 6  
Year to date cooling degree days 2423 2418  
Growing Degree Days 8 (Base 50)    
Moisture  
Dew Point 42 °F    
Average Humidity 57    
Maximum Humidity 86    
Minimum Humidity 28    
Precipitation  
Precipitation 0.00 in 0.08 in 3.06 in (1900)
Month to date precipitation 1.01 0.23  
Year to date precipitation 50.19 42.87  
Sea Level Pressure  
Sea Level Pressure 30.14 in    
Wind  
Wind Speed 7 mph (NNE)    
Max Wind Speed 16 mph    
Max Gust Speed 24 mph    
Visibility 10 miles    
Events      
T = Trace of Precipitation, MM = Missing Value Source: NWS Daily Summary

Daily Weather History Graph

Daily Weather History Graph

Search for Another Location

Airport:

Trip Planner

Search our weather history database for the weather conditions in past years. The results will help you decide how hot, cold, wet, or windy it might be!

Date:

Astronomy

Nov. 03, 2013 Rise Set
Actual Time 6:43 AM EST 5:32 PM EST
Civil Twilight 6:18 AM EST 5:58 PM EST
Nautical Twilight 5:49 AM EST 6:27 PM EST
Astronomical Twilight 5:20 AM EST 6:55 PM EST
Moon 6:45 AM EST (11/3) 5:48 PM EST (11/3)
Length of Visible Light 11h 40m
Length of Day
10h 49m
New Moon, 0% of the Moon is Illuminated
Nov 3
New Moon
Nov 10
First Quarter
Nov 17
Full
Nov 25
Last Quarter
Dec 2
New

Hourly Weather History & Observations

Time (EST) Temp. Windchill Dew Point Humidity Pressure Visibility Wind Dir Wind Speed Gust Speed Precip Events Conditions
12:53 AM 57.0 °F - 46.9 °F 69% 29.98 in 10.0 mi NNW 5.8 mph - N/A   Clear
1:53 AM 54.0 °F - 46.0 °F 75% 29.99 in 10.0 mi NW 5.8 mph - N/A   Clear
1:53 AM 54.0 °F - 45.0 °F 72% 30.01 in 10.0 mi NNW 6.9 mph - N/A   Clear
2:53 AM 51.1 °F - 45.0 °F 80% 30.02 in 10.0 mi Calm Calm - N/A   Clear
3:53 AM 50.0 °F - 44.1 °F 80% 30.04 in 10.0 mi NW 3.5 mph - N/A   Clear
4:53 AM 48.9 °F - 43.0 °F 80% 30.06 in 10.0 mi NNW 5.8 mph - N/A   Clear
5:53 AM 48.0 °F - 42.1 °F 80% 30.08 in 10.0 mi NNW 4.6 mph - N/A   Clear
6:53 AM 46.0 °F 43.9 °F 41.0 °F 83% 30.11 in 10.0 mi North 4.6 mph - N/A   Clear
7:53 AM 52.0 °F - 44.1 °F 74% 30.14 in 10.0 mi North 8.1 mph - N/A   Clear
8:53 AM 57.9 °F - 44.1 °F 60% 30.17 in 10.0 mi NNE 6.9 mph - N/A   Clear
9:53 AM 61.0 °F - 39.9 °F 46% 30.18 in 10.0 mi NE 13.8 mph - N/A   Clear
10:53 AM 64.9 °F - 39.9 °F 40% 30.19 in 10.0 mi NNE 11.5 mph 16.1 mph N/A   Clear
11:53 AM 66.9 °F - 37.0 °F 33% 30.19 in 10.0 mi ENE 9.2 mph 24.2 mph N/A   Clear
12:53 PM 69.1 °F - 37.9 °F 32% 30.17 in 10.0 mi ENE 6.9 mph - N/A   Clear
1:53 PM 70.0 °F - 35.1 °F 28% 30.15 in 10.0 mi North 11.5 mph 17.3 mph N/A   Clear
2:53 PM 69.1 °F - 37.0 °F 31% 30.15 in 10.0 mi NNE 11.5 mph - N/A   Clear
3:53 PM 68.0 °F - 36.0 °F 31% 30.17 in 10.0 mi NE 13.8 mph - N/A   Clear
4:53 PM 66.0 °F - 37.9 °F 36% 30.18 in 10.0 mi NNE 6.9 mph - N/A   Clear
5:53 PM 59.0 °F - 41.0 °F 51% 30.20 in 10.0 mi NNE 3.5 mph - N/A   Clear
6:53 PM 53.1 °F - 44.1 °F 71% 30.23 in 10.0 mi NNE 4.6 mph - N/A   Clear
7:53 PM 51.1 °F - 45.0 °F 80% 30.24 in 10.0 mi NE 4.6 mph - N/A   Clear
8:53 PM 50.0 °F - 44.1 °F 80% 30.27 in 10.0 mi Calm Calm - N/A   Clear
9:53 PM 48.9 °F - 44.1 °F 83% 30.28 in 10.0 mi NNE 4.6 mph - N/A   Clear
10:53 PM 51.1 °F - 43.0 °F 74% 30.28 in 10.0 mi NE 5.8 mph - N/A   Clear